| time (UTC) | temp C | wind direction | speed KPH | gust KPH | rain 1hr cm | rain 24hr cm | rain mn cm | humidity % | barometer mb |
| 20260506201347 | 6 | 36 | 3.2 | 9.7 | 0.05 | 2.84 | 2.29 | 97 | 1007.7 |
| 20260506200842 | 6 | 34 | 1.6 | 4.8 | 0.05 | 2.84 | 2.29 | 97 | 1007.7 |
| 20260506200335 | 6 | 39 | 1.6 | 6.4 | 0.08 | 2.84 | 2.29 | 97 | 1007.6 |
| 20260506195830 | 6 | 25 | 3.2 | 6.4 | 0.08 | 2.84 | 2.29 | 97 | 1007.7 |
| 20260506195324 | 6 | 25 | 3.2 | 4.8 | 0.08 | 2.82 | 2.26 | 97 | 1007.6 |
| 20260506194817 | 6 | 42 | 3.2 | 8.0 | 0.08 | 2.82 | 2.26 | 98 | 1007.5 |
| 20260506194312 | 6 | 18 | 3.2 | 8.0 | 0.08 | 2.82 | 2.26 | 97 | 1007.4 |
| 20260506193805 | 6 | 345 | 1.6 | 6.4 | 0.10 | 2.82 | 2.26 | 98 | 1007.4 |
| 20260506193300 | 6 | 19 | 1.6 | 4.8 | 0.10 | 2.82 | 2.26 | 98 | 1007.4 |
| 20260506192753 | 6 | 21 | 1.6 | 4.8 | 0.10 | 2.82 | 2.26 | 98 | 1007.4 |
| 20260506192247 | 6 | 57 | 1.6 | 4.8 | 0.13 | 2.82 | 2.26 | 98 | 1007.4 |
| 20260506191742 | 6 | 32 | 1.6 | 3.2 | 0.10 | 2.79 | 2.24 | 98 | 1007.4 |
| 20260506191235 | 6 | 20 | 1.6 | 3.2 | 0.10 | 2.79 | 2.24 | 98 | 1007.4 |
| 20260506190730 | 6 | 82 | 1.6 | 3.2 | 0.10 | 3.12 | 2.24 | 98 | 1007.4 |
| 20260506190223 | 6 | 75 | 0.0 | 3.2 | 0.10 | 3.12 | 2.21 | 98 | 1007.6 |
| 20260506185717 | 6 | 311 | 0.0 | 3.2 | 0.10 | 3.12 | 2.21 | 98 | 1007.7 |
| 20260506184705 | 6 | 343 | 1.6 | 4.8 | 0.08 | 3.25 | 2.18 | 98 | 1007.9 |
| 20260506184200 | 6 | 3 | 1.6 | 4.8 | 0.05 | 3.23 | 2.16 | 98 | 1008.1 |
| 20260506183654 | 6 | 68 | 1.6 | 3.2 | 0.08 | 3.23 | 2.16 | 98 | 1008.0 |
| 20260506183147 | 6 | 32 | 1.6 | 3.2 | 0.10 | 3.23 | 2.16 | 98 | 1008.0 |
| 20260506182642 | 6 | 41 | 1.6 | 4.8 | 0.13 | 3.23 | 2.16 | 98 | 1008.2 |
| 20260506182135 | 6 | 19 | 1.6 | 6.4 | 0.13 | 3.20 | 2.13 | 98 | 1008.2 |
| 20260506181630 | 6 | 20 | 1.6 | 6.4 | 0.13 | 3.20 | 2.13 | 98 | 1008.3 |
| 20260506181127 | 6 | 66 | 3.2 | 8.0 | 0.15 | 3.20 | 2.13 | 98 | 1008.3 |
| 20260506180627 | 6 | 74 | 3.2 | 8.0 | 0.15 | 3.20 | 2.13 | 98 | 1008.4 |
| 20260506180128 | 6 | 30 | 1.6 | 4.8 | 0.15 | 3.17 | 2.11 | 98 | 1008.4 |
| 20260506175628 | 6 | 8 | 1.6 | 4.8 | 0.18 | 3.17 | 2.11 | 98 | 1008.3 |
| 20260506175127 | 6 | 357 | 1.6 | 3.2 | 0.18 | 3.17 | 2.11 | 98 | 1008.6 |
| 20260506174631 | 6 | 18 | 1.6 | 3.2 | 0.20 | 3.17 | 2.11 | 98 | 1008.4 |
| 20260506174132 | 6 | 87 | 1.6 | 4.8 | 0.23 | 3.17 | 2.11 | 98 | 1008.5 |
| 20260506173627 | 6 | 20 | 0.0 | 4.8 | 0.23 | 3.15 | 2.08 | 98 | 1008.5 |
| 20260506173127 | 6 | 20 | 1.6 | 6.4 | 0.23 | 3.12 | 2.06 | 98 | 1008.5 |
| 20260506172628 | 6 | 13 | 1.6 | 6.4 | 0.23 | 3.10 | 2.03 | 97 | 1008.5 |
| 20260506172127 | 6 | 80 | 0.0 | 4.8 | 0.23 | 3.07 | 2.01 | 98 | 1008.6 |
| 20260506171625 | 6 | 351 | 1.6 | 6.4 | 0.25 | 3.07 | 2.01 | 97 | 1008.6 |
| 20260506171126 | 6 | 28 | 3.2 | 9.7 | 0.25 | 3.05 | 1.98 | 97 | 1008.7 |
| 20260506170625 | 6 | 11 | 3.2 | 9.7 | 0.30 | 3.05 | 1.98 | 97 | 1008.6 |
| 20260506170126 | 6 | 50 | 3.2 | 9.7 | 0.30 | 3.02 | 1.96 | 97 | 1008.6 |
| 20260506165625 | 6 | 9 | 4.8 | 9.7 | 0.33 | 3.00 | 1.93 | 97 | 1008.7 |
| 20260506165126 | 6 | 39 | 4.8 | 8.0 | 0.36 | 3.00 | 1.93 | 97 | 1008.8 |
| 20260506164626 | 6 | 27 | 3.2 | 8.0 | 0.36 | 2.97 | 1.91 | 98 | 1008.7 |
| 20260506164125 | 6 | 18 | 3.2 | 8.0 | 0.36 | 2.95 | 1.88 | 97 | 1008.8 |
| 20260506163629 | 6 | 17 | 3.2 | 9.7 | 0.36 | 2.92 | 1.85 | 98 | 1008.9 |
| 20260506163127 | 6 | 31 | 3.2 | 9.7 | 0.36 | 2.90 | 1.83 | 97 | 1009.0 |
| 20260506162625 | 6 | 4 | 3.2 | 6.4 | 0.38 | 2.87 | 1.80 | 97 | 1009.0 |
| 20260506162122 | 6 | 346 | 3.2 | 8.0 | 0.38 | 2.84 | 1.78 | 97 | 1008.9 |
| 20260506161619 | 6 | 24 | 3.2 | 8.0 | 0.36 | 2.82 | 1.75 | 97 | 1008.8 |
| 20260506161120 | 6 | 51 | 1.6 | 8.0 | 0.38 | 2.79 | 1.73 | 98 | 1009.0 |
| 20260506160120 | 6 | 30 | 3.2 | 6.4 | 0.36 | 2.72 | 1.65 | 97 | 1009.2 |
| 20260506155117 | 6 | 352 | 3.2 | 9.7 | 0.30 | 2.64 | 1.57 | 97 | 1009.3 |
| 20260506154118 | 6 | 33 | 4.8 | 12.9 | 0.28 | 2.59 | 1.52 | 97 | 1009.2 |
| 20260506153118 | 6 | 20 | 3.2 | 11.3 | 0.25 | 2.54 | 1.47 | 98 | 1008.9 |
| 20260506152617 | 6 | 34 | 3.2 | 8.0 | 0.23 | 2.49 | 1.42 | 98 | 1009.0 |
| 20260506151614 | 6 | 19 | 3.2 | 9.7 | 0.23 | 2.46 | 1.40 | 98 | 1008.8 |
| 20260506150614 | 6 | 61 | 3.2 | 9.7 | 0.18 | 2.39 | 1.32 | 97 | 1009.0 |
| 20260506150113 | 6 | 349 | 3.2 | 9.7 | 0.15 | 2.36 | 1.32 | 97 | 1009.0 |
| 20260506145612 | 6 | 13 | 3.2 | 8.0 | 0.18 | 2.36 | 1.30 | 97 | 1008.9 |
| 20260506145112 | 6 | 48 | 3.2 | 8.0 | 0.15 | 2.34 | 1.27 | 97 | 1008.9 |
| 20260506144106 | 6 | 33 | 3.2 | 11.3 | 0.13 | 2.31 | 1.24 | 97 | 1009.1 |
| 20260506143606 | 6 | 63 | 4.8 | 9.7 | 0.10 | 2.29 | 1.24 | 97 | 1009.1 |
| 20260506142606 | 6 | 336 | 3.2 | 9.7 | 0.08 | 2.26 | 1.19 | 97 | 1009.3 |
| 20260506142106 | 6 | 356 | 3.2 | 11.3 | 0.08 | 2.26 | 1.19 | 97 | 1009.2 |
| 20260506141104 | 6 | 6 | 3.2 | 8.0 | 0.05 | 2.21 | 1.14 | 97 | 1009.2 |
| 20260506140603 | 6 | 357 | 3.2 | 9.7 | 0.05 | 2.21 | 1.14 | 97 | 1009.0 |
| 20260506135604 | 6 | 30 | 3.2 | 9.7 | 0.05 | 2.18 | 1.12 | 96 | 1008.9 |
| 20260506134105 | 6 | 44 | 3.2 | 8.0 | 0.08 | 2.18 | 1.12 | 96 | 1009.2 |
| 20260506133600 | 6 | 11 | 3.2 | 8.0 | 0.08 | 2.18 | 1.12 | 96 | 1009.3 |
| 20260506133100 | 6 | 10 | 3.2 | 8.0 | 0.10 | 2.18 | 1.12 | 96 | 1009.2 |
| 20260506132559 | 6 | 30 | 3.2 | 8.0 | 0.13 | 2.18 | 1.12 | 95 | 1009.5 |
| 20260506132100 | 6 | 1 | 1.6 | 6.4 | 0.13 | 2.18 | 1.12 | 95 | 1009.6 |
| 20260506131100 | 6 | 49 | 1.6 | 6.4 | 0.13 | 2.16 | 1.09 | 95 | 1009.6 |
| 20260506130559 | 6 | 64 | 1.6 | 6.4 | 0.15 | 2.16 | 1.09 | 95 | 1009.5 |
| 20260506125555 | 6 | 46 | 1.6 | 4.8 | 0.15 | 2.13 | 1.07 | 95 | 1009.8 |
| 20260506125055 | 6 | 77 | 1.6 | 8.0 | 0.18 | 2.13 | 1.07 | 94 | 1009.6 |
| 20260506124556 | 6 | 71 | 4.8 | 12.9 | 0.18 | 2.13 | 1.07 | 93 | 1009.6 |
| 20260506124055 | 6 | 62 | 3.2 | 12.9 | 0.18 | 2.11 | 1.04 | 94 | 1009.6 |
| 20260506123055 | 7 | 76 | 1.6 | 9.7 | 0.20 | 2.08 | 1.02 | 95 | 1009.7 |
| 20260506122555 | 7 | 24 | 1.6 | 6.4 | 0.18 | 2.06 | 1.02 | 96 | 1010.1 |
| 20260506122056 | 7 | 352 | 3.2 | 8.0 | 0.18 | 2.06 | 0.99 | 95 | 1010.3 |
| 20260506121051 | 7 | 51 | 1.6 | 4.8 | 0.18 | 2.03 | 0.97 | 95 | 1010.1 |
| 20260506120551 | 7 | 50 | 0.0 | 3.2 | 0.15 | 2.01 | 0.94 | 96 | 1010.3 |
| 20260506120052 | 7 | 47 | 1.6 | 4.8 | 0.15 | 2.01 | 0.94 | 96 | 1010.4 |
| 20260506115551 | 7 | 121 | 1.6 | 4.8 | 0.13 | 1.98 | 0.91 | 97 | 1010.2 |
| 20260506115052 | 7 | 171 | 1.6 | 3.2 | 0.10 | 1.96 | 0.89 | 96 | 1010.5 |
| 20260506114551 | 7 | 219 | 0.0 | 3.2 | 0.13 | 1.96 | 0.89 | 96 | 1010.4 |
| 20260506114052 | 7 | 247 | 0.0 | 1.6 | 0.10 | 1.93 | 0.86 | 97 | 1010.4 |
| 20260506113551 | 7 | 248 | 0.0 | 4.8 | 0.08 | 1.91 | 0.84 | 97 | 1010.3 |
| 20260506113052 | 7 | 248 | 1.6 | 4.8 | 0.05 | 1.88 | 0.81 | 96 | 1010.2 |
| 20260506112547 | 7 | 224 | 3.2 | 4.8 | 0.05 | 1.88 | 0.81 | 97 | 1009.8 |
| 20260506111548 | 7 | 161 | 1.6 | 3.2 | 0.03 | 1.85 | 0.79 | 96 | 1009.6 |
| 20260506111047 | 7 | 141 | 1.6 | 3.2 | 0.03 | 1.85 | 0.79 | 96 | 1009.6 |
| 20260506110548 | 7 | 142 | 0.0 | 1.6 | 0.03 | 1.85 | 0.79 | 96 | 1009.6 |
| 20260506110047 | 7 | 214 | 0.0 | 1.6 | 0.05 | 1.85 | 0.79 | 96 | 1009.6 |
| 20260506105548 | 7 | 232 | 0.0 | 1.6 | 0.08 | 1.85 | 0.79 | 96 | 1009.8 |
| 20260506105048 | 7 | 232 | 0.0 | 1.6 | 0.08 | 1.85 | 0.79 | 96 | 1009.7 |
| 20260506104547 | 7 | 126 | 0.0 | 4.8 | 0.05 | 1.83 | 0.76 | 95 | 1009.5 |
| 20260506104044 | 7 | 126 | 1.6 | 4.8 | 0.08 | 1.83 | 0.76 | 95 | 1009.3 |
| 20260506103543 | 7 | 130 | 1.6 | 4.8 | 0.08 | 1.83 | 0.76 | 95 | 1009.5 |
| 20260506102543 | 7 | 141 | 1.6 | 4.8 | 0.08 | 1.83 | 0.76 | 96 | 1009.6 |
| 20260506102044 | 7 | 81 | 1.6 | 3.2 | 0.10 | 1.83 | 0.76 | 96 | 1009.7 |
| 20260506100543 | 7 | 8 | 3.2 | 11.3 | 0.10 | 1.83 | 0.76 | 95 | 1009.5 |
| 20260506100044 | 8 | 98 | 1.6 | 9.7 | 0.08 | 1.80 | 0.74 | 95 | 1008.7 |
| 20260506095539 | 8 | 41 | 1.6 | 9.7 | 0.05 | 1.78 | 0.71 | 96 | 1010.2 |
| 20260506095040 | 8 | 89 | 1.6 | 9.7 | 0.05 | 1.78 | 0.71 | 96 | 1009.8 |
| 20260506094539 | 8 | 86 | 1.6 | 8.0 | 0.05 | 1.78 | 0.71 | 96 | 1009.5 |
| 20260506094039 | 8 | 91 | 3.2 | 9.7 | 0.03 | 1.75 | 0.69 | 96 | 1009.7 |
| 20260506093540 | 8 | 70 | 3.2 | 9.7 | 0.05 | 1.75 | 0.69 | 96 | 1009.5 |
| 20260506093039 | 8 | 49 | 4.8 | 11.3 | 0.05 | 1.75 | 0.69 | 97 | 1009.9 |
| 20260506092539 | 8 | 83 | 3.2 | 11.3 | 0.05 | 1.75 | 0.69 | 97 | 1009.7 |
| 20260506092040 | 9 | 88 | 1.6 | 4.8 | 0.03 | 1.73 | 0.66 | 98 | 1010.1 |
| 20260506091539 | 9 | 346 | 1.6 | 4.8 | 0.03 | 1.73 | 0.66 | 98 | 1010.5 |
| 20260506091035 | 9 | 82 | 0.0 | 3.2 | 0.05 | 1.73 | 0.66 | 98 | 1010.0 |
| 20260506090035 | 9 | 16 | 1.6 | 4.8 | 0.13 | 1.73 | 0.66 | 98 | 1010.0 |
| 20260506085536 | 9 | 128 | 0.0 | 1.6 | 0.15 | 1.73 | 0.66 | 98 | 1009.9 |
| 20260506085035 | 9 | 128 | 0.0 | 1.6 | 0.15 | 1.73 | 0.66 | 98 | 1010.1 |
| 20260506084536 | 9 | 128 | 0.0 | 1.6 | 0.15 | 1.73 | 0.66 | 98 | 1009.8 |
| 20260506084035 | 9 | 128 | 0.0 | 3.2 | 0.15 | 1.73 | 0.66 | 97 | 1009.9 |
| 20260506083536 | 9 | 128 | 1.6 | 3.2 | 0.15 | 1.70 | 0.64 | 97 | 1010.0 |
| 20260506083035 | 9 | 198 | 1.6 | 3.2 | 0.15 | 1.70 | 0.64 | 97 | 1010.3 |
| 20260506082531 | 9 | 200 | 0.0 | 3.2 | 0.15 | 1.70 | 0.64 | 98 | 1010.1 |
| 20260506082031 | 9 | 246 | 1.6 | 3.2 | 0.15 | 1.70 | 0.64 | 97 | 1010.0 |
| 20260506073031 | 10 | 156 | 0.0 | 0.0 | 0.08 | 1.55 | 0.48 | 98 | 1009.8 |
| 20260506072528 | 10 | 156 | 0.0 | 0.0 | 0.08 | 1.55 | 0.48 | 98 | 1010.0 |
| 20260506071527 | 10 | 156 | 1.6 | 6.4 | 0.08 | 1.52 | 0.46 | 98 | 1009.2 |
| 20260506071028 | 10 | 235 | 1.6 | 6.4 | 0.08 | 1.52 | 0.46 | 98 | 1009.8 |
| 20260506070528 | 10 | 221 | 1.6 | 1.6 | 0.08 | 1.52 | 0.46 | 98 | 1009.5 |
| 20260506062019 | 10 | 217 | 0.0 | 1.6 | 0.08 | 1.45 | 0.38 | 98 | 1009.9 |
| 20260506061520 | 10 | 226 | 0.0 | 1.6 | 0.10 | 1.45 | 0.38 | 98 | 1010.0 |
| 20260506060518 | 10 | 231 | 0.0 | 0.0 | 0.13 | 1.45 | 0.38 | 98 | 1009.9 |
| 20260506051001 | 11 | 34 | 0.0 | 1.6 | 0.28 | 1.35 | 0.28 | 97 | 1009.9 |
| 20260506050501 | 11 | 36 | 0.0 | 1.6 | 0.25 | 1.32 | 0.25 | 97 | 1009.7 |
| 20260506044959 | 11 | 36 | 1.6 | 4.8 | 0.20 | 1.22 | 0.18 | 97 | 1009.6 |
| 20260506044458 | 11 | 24 | 0.0 | 4.8 | 0.15 | 1.17 | 0.13 | 97 | 1009.3 |
| 20260506043959 | 11 | 141 | 0.0 | 6.4 | 0.13 | 1.14 | 0.08 | 96 | 1009.7 |
| 20260506042959 | 11 | 155 | 4.8 | 6.4 | 0.13 | 1.12 | 0.08 | 95 | 1009.1 |
| 20260506041953 | 11 | 210 | 3.2 | 6.4 | 0.18 | 1.12 | 0.05 | 95 | 1009.8 |
| 20260506041453 | 11 | 205 | 3.2 | 9.7 | 0.20 | 1.09 | 0.03 | 95 | 1009.6 |
| 20260506035933 | 11 | 200 | 4.8 | 9.7 | 0.23 | 1.04 | 1.07 | 94 | 1009.2 |
| 20260506035429 | 12 | 218 | 4.8 | 9.7 | 0.23 | 1.04 | 1.04 | 94 | 1009.0 |
| 20260506034924 | 12 | 197 | 4.8 | 12.9 | 0.20 | 1.02 | 1.02 | 94 | 1008.9 |
| 20260506034417 | 12 | 196 | 3.2 | 12.9 | 0.20 | 1.02 | 1.02 | 94 | 1009.1 |
| 20260506033912 | 12 | 203 | 1.6 | 6.4 | 0.20 | 1.02 | 1.02 | 94 | 1009.1 |
| 20260506033406 | 12 | 219 | 0.0 | 1.6 | 0.20 | 1.02 | 1.02 | 94 | 1009.2 |
| 20260506032859 | 12 | 219 | 0.0 | 1.6 | 0.18 | 0.99 | 0.99 | 94 | 1009.3 |
| 20260506032354 | 12 | 165 | 1.6 | 6.4 | 0.18 | 0.97 | 0.97 | 93 | 1009.1 |
| 20260506031847 | 13 | 251 | 3.2 | 8.0 | 0.15 | 0.94 | 0.94 | 93 | 1009.0 |
| 20260506031342 | 13 | 155 | 6.4 | 11.3 | 0.10 | 0.89 | 0.89 | 93 | 1009.0 |
| 20260506030835 | 13 | 161 | 4.8 | 11.3 | 0.08 | 0.86 | 0.86 | 95 | 1008.7 |
| 20260506030330 | 13 | 165 | 1.6 | 6.4 | 0.08 | 0.81 | 0.81 | 96 | 1008.7 |
| 20260506025823 | 13 | 243 | 3.2 | 6.4 | 0.13 | 0.81 | 0.81 | 96 | 1008.4 |
| 20260506025317 | 13 | 160 | 4.8 | 8.0 | 0.15 | 0.81 | 0.81 | 95 | 1008.2 |
| 20260506024812 | 13 | 147 | 4.8 | 8.0 | 0.15 | 0.81 | 0.81 | 95 | 1008.0 |
| 20260506024306 | 13 | 188 | 4.8 | 4.8 | 0.15 | 0.81 | 0.81 | 95 | 1008.2 |
| 20260506023759 | 13 | 121 | 3.2 | 4.8 | 0.15 | 0.81 | 0.81 | 94 | 1008.1 |
| 20260506023254 | 13 | 154 | 3.2 | 4.8 | 0.15 | 0.81 | 0.81 | 93 | 1008.1 |
| 20260506022747 | 13 | 148 | 1.6 | 4.8 | 0.15 | 0.81 | 0.81 | 91 | 1008.0 |
| 20260506022242 | 14 | 118 | 0.0 | 4.8 | 0.13 | 0.79 | 0.79 | 89 | 1008.0 |
| 20260506021736 | 14 | 310 | 1.6 | 9.7 | 0.13 | 0.79 | 0.79 | 89 | 1007.9 |
| 20260506021229 | 14 | 32 | 1.6 | 9.7 | 0.13 | 0.79 | 0.79 | 88 | 1008.0 |
| 20260506020723 | 15 | 294 | 1.6 | 11.3 | 0.10 | 0.76 | 0.79 | 88 | 1008.2 |
| 20260506020217 | 15 | 4 | 3.2 | 11.3 | 0.05 | 0.71 | 0.71 | 89 | 1008.2 |
| 20260506015712 | 15 | 66 | 3.2 | 9.7 | 0.03 | 0.69 | 0.69 | 91 | 1007.9 |
| 20260506015206 | 15 | 351 | 1.6 | 9.7 | 0.00 | 0.66 | 0.66 | 90 | 1007.7 |
| 20260506014659 | 15 | 264 | 0.0 | 9.7 | 0.00 | 0.66 | 0.66 | 91 | 1007.5 |
| 20260506014153 | 15 | 304 | 0.0 | 1.6 | 0.00 | 0.66 | 0.66 | 90 | 1007.3 |
| 20260506013647 | 15 | 283 | 0.0 | 4.8 | 0.00 | 0.66 | 0.66 | 88 | 1007.1 |
| 20260506013141 | 16 | 254 | 0.0 | 4.8 | 0.00 | 0.66 | 0.66 | 85 | 1006.9 |
| 20260506012636 | 16 | 231 | 1.6 | 4.8 | 0.00 | 0.66 | 0.66 | 83 | 1006.7 |
| 20260506012130 | 16 | 248 | 1.6 | 4.8 | 0.00 | 0.66 | 0.66 | 82 | 1006.4 |
| 20260506011623 | 16 | 236 | 1.6 | 8.0 | 0.00 | 0.66 | 0.66 | 81 | 1006.4 |
| 20260506011118 | 16 | 235 | 1.6 | 8.0 | 0.00 | 0.66 | 0.66 | 82 | 1006.4 |
| 20260506010106 | 17 | 250 | 3.2 | 11.3 | 0.00 | 0.66 | 0.66 | 80 | 1006.2 |
| 20260506005053 | 16 | 263 | 3.2 | 8.0 | 0.00 | 0.66 | 0.66 | 80 | 1006.2 |
| 20260506004548 | 16 | 217 | 3.2 | 6.4 | 0.00 | 0.66 | 0.66 | 81 | 1006.2 |
| 20260506004041 | 16 | 219 | 1.6 | 4.8 | 0.00 | 0.66 | 0.66 | 80 | 1006.0 |
| 20260506003536 | 16 | 210 | 3.2 | 9.7 | 0.00 | 0.66 | 0.66 | 81 | 1005.8 |
| 20260506002524 | 17 | 217 | 4.8 | 11.3 | 0.00 | 0.66 | 0.66 | 80 | 1005.6 |
| 20260506002018 | 16 | 217 | 4.8 | 11.3 | 0.00 | 0.66 | 0.66 | 80 | 1005.6 |
| 20260506001511 | 16 | 207 | 3.2 | 6.4 | 0.00 | 0.66 | 0.66 | 81 | 1005.6 |
| 20260506001006 | 16 | 223 | 3.2 | 9.7 | 0.00 | 0.66 | 0.66 | 81 | 1005.6 |
| 20260505235448 | 16 | 233 | 4.8 | 14.5 | 0.00 | 0.66 | 0.66 | 82 | 1005.5 |
| 20260505234941 | 16 | 223 | 6.4 | 12.9 | 0.00 | 0.66 | 0.66 | 83 | 1005.6 |
| 20260505234436 | 16 | 209 | 6.4 | 12.9 | 0.00 | 0.66 | 0.66 | 82 | 1005.3 |
| 20260505233929 | 16 | 244 | 4.8 | 9.7 | 0.00 | 0.66 | 0.66 | 83 | 1005.5 |
| 20260505233423 | 16 | 211 | 4.8 | 8.0 | 0.00 | 0.66 | 0.66 | 84 | 1005.5 |
| 20260505232412 | 16 | 215 | 3.2 | 9.7 | 0.00 | 0.66 | 0.66 | 84 | 1005.5 |
| 20260505231905 | 17 | 242 | 4.8 | 11.3 | 0.00 | 0.66 | 0.66 | 84 | 1005.2 |
| 20260505231359 | 17 | 205 | 4.8 | 11.3 | 0.00 | 0.66 | 0.66 | 83 | 1005.0 |
| 20260505230853 | 17 | 211 | 4.8 | 11.3 | 0.00 | 0.66 | 0.66 | 84 | 1004.9 |
| 20260505230347 | 17 | 256 | 4.8 | 12.9 | 0.00 | 0.66 | 0.66 | 84 | 1005.0 |
| 20260505225842 | 17 | 179 | 3.2 | 12.9 | 0.00 | 0.66 | 0.66 | 83 | 1004.9 |
| 20260505225335 | 17 | 265 | 3.2 | 9.7 | 0.00 | 0.66 | 0.66 | 84 | 1004.9 |
| 20260505224829 | 17 | 253 | 3.2 | 8.0 | 0.00 | 0.66 | 0.66 | 85 | 1004.9 |
| 20260505224324 | 17 | 240 | 3.2 | 8.0 | 0.00 | 0.66 | 0.66 | 85 | 1005.0 |
| 20260505223818 | 17 | 251 | 1.6 | 6.4 | 0.00 | 0.66 | 0.66 | 87 | 1005.0 |
| 20260505223312 | 16 | 244 | 1.6 | 4.8 | 0.00 | 0.66 | 0.66 | 87 | 1004.9 |
| 20260505222805 | 16 | 217 | 0.0 | 3.2 | 0.00 | 0.66 | 0.66 | 88 | 1005.2 |
| 20260505222300 | 17 | 312 | 0.0 | 3.2 | 0.00 | 0.66 | 0.66 | 88 | 1005.1 |
| 20260505221248 | 17 | 272 | 1.6 | 9.7 | 0.00 | 0.66 | 0.66 | 83 | 1004.8 |
| 20260505220741 | 17 | 278 | 1.6 | 6.4 | 0.00 | 0.66 | 0.66 | 81 | 1004.8 |
| 20260505220236 | 17 | 266 | 1.6 | 6.4 | 0.00 | 0.66 | 0.66 | 82 | 1004.8 |
| 20260505215729 | 17 | 245 | 1.6 | 3.2 | 0.00 | 0.66 | 0.66 | 84 | 1004.8 |
| 20260505215224 | 17 | 264 | 1.6 | 3.2 | 0.00 | 0.66 | 0.66 | 84 | 1004.8 |
| 20260505214717 | 17 | 314 | 1.6 | 11.3 | 0.00 | 0.66 | 0.66 | 85 | 1004.6 |
| 20260505214212 | 16 | 288 | 4.8 | 11.3 | 0.00 | 0.66 | 0.66 | 85 | 1004.6 |
| 20260505213705 | 16 | 242 | 6.4 | 14.5 | 0.00 | 0.66 | 0.66 | 84 | 1004.7 |
| 20260505212653 | 16 | 215 | 6.4 | 14.5 | 0.03 | 0.66 | 0.66 | 86 | 1004.7 |
| 20260505212148 | 16 | 206 | 6.4 | 12.9 | 0.03 | 0.66 | 0.66 | 87 | 1004.8 |
| 20260505211136 | 16 | 203 | 4.8 | 11.3 | 0.15 | 0.66 | 0.66 | 87 | 1004.3 |
| 20260505210629 | 16 | 221 | 3.2 | 11.3 | 0.15 | 0.66 | 0.66 | 89 | 1004.3 |
| 20260505205618 | 16 | 319 | 4.8 | 14.5 | 0.15 | 0.66 | 0.66 | 87 | 1004.0 |
| 20260505205111 | 16 | 196 | 4.8 | 14.5 | 0.15 | 0.66 | 0.66 | 89 | 1004.0 |
| 20260505204606 | 16 | 257 | 6.4 | 14.5 | 0.15 | 0.66 | 0.66 | 89 | 1004.1 |
| 20260505204059 | 16 | 227 | 8.0 | 14.5 | 0.15 | 0.66 | 0.66 | 88 | 1004.4 |
| 20260505203553 | 16 | 238 | 6.4 | 14.5 | 0.15 | 0.66 | 0.66 | 89 | 1004.5 |
| 20260505203048 | 16 | 223 | 3.2 | 12.9 | 0.15 | 0.66 | 0.66 | 93 | 1004.5 |
| 20260505202542 | 16 | 209 | 1.6 | 8.0 | 0.13 | 0.64 | 0.64 | 94 | 1004.8 |